FW2944 Weather Reports


time (UTC)temp
F
wind
direction
speed
knots
gust
knots
rain 1hr
in
rain 24hr
in
rain mn
in
humidity
%
barometer
mb
20260504204943 52 280 7.8 8.7 0.00 0.00 0.00 43 1014.8
20260504204440 53 271 11.3 13.0 0.00 0.00 0.00 41 1014.9
20260504203939 52 282 6.1 7.0 0.00 0.00 0.00 41 1014.6
20260504203437 52 297 7.8 8.7 0.00 0.00 0.00 40 1015.1
20260504202933 53 310 13.0 14.8 0.00 0.00 0.00 39 1014.8
20260504202429 53 291 9.6 12.2 0.00 0.00 0.00 40 1014.8
20260504201926 53 266 9.6 11.3 0.00 0.00 0.00 40 1014.9
20260504201424 53 278 7.8 8.7 0.00 0.00 0.00 44 1014.9
20260504200921 52 276 9.6 11.3 0.00 0.00 0.00 43 1015.1
20260504200417 51 278 5.2 6.1 0.00 0.00 0.00 44 1015.2
20260504195914 51 300 7.0 7.8 0.00 0.00 0.00 46 1015.2
20260504195410 51 292 8.7 9.6 0.00 0.00 0.00 45 1015.1
20260504194907 51 277 8.7 8.7 0.00 0.00 0.00 46 1015.2
20260504194403 51 285 9.6 11.3 0.00 0.00 0.00 45 1015.2
20260504193859 51 277 7.8 8.7 0.00 0.00 0.00 46 1015.2
20260504193356 51 281 13.0 13.9 0.00 0.00 0.00 44 1015.2
20260504192855 51 289 8.7 9.6 0.00 0.00 0.00 45 1015.4
20260504192352 51 311 8.7 9.6 0.00 0.00 0.00 45 1015.1
20260504191850 51 299 8.7 9.6 0.00 0.00 0.00 45 1015.4
20260504191348 51 288 12.2 14.8 0.00 0.00 0.00 44 1015.2
20260504190843 51 269 9.6 11.3 0.00 0.00 0.00 46 1015.2
20260504190339 51 280 6.1 7.0 0.00 0.00 0.00 48 1015.2
20260504185836 51 268 7.0 8.7 0.00 0.00 0.00 47 1015.3
20260504185333 51 278 8.7 9.6 0.00 0.00 0.00 47 1015.2
20260504184829 50 267 8.7 9.6 0.00 0.00 0.00 47 1015.3
20260504184325 51 274 13.0 13.9 0.00 0.00 0.00 48 1015.4
20260504183821 51 280 10.4 11.3 0.00 0.00 0.00 49 1015.5
20260504183318 50 258 7.8 8.7 0.00 0.00 0.00 48 1015.2
20260504182816 50 276 10.4 12.2 0.00 0.00 0.00 49 1015.5
20260504182313 50 288 6.1 7.0 0.00 0.00 0.00 49 1015.5
20260504181810 51 283 9.6 11.3 0.00 0.00 0.00 48 1015.4
20260504181308 50 282 9.6 12.2 0.00 0.00 0.00 48 1015.4
20260504180807 51 289 6.1 7.0 0.00 0.00 0.00 49 1015.5
20260504180305 52 296 9.6 11.3 0.00 0.00 0.00 47 1015.6
20260504175803 51 270 9.6 12.2 0.00 0.00 0.00 50 1015.7
20260504175259 51 264 9.6 9.6 0.00 0.00 0.00 49 1015.6
20260504174757 50 309 10.4 13.0 0.00 0.00 0.00 50 1015.6
20260504174255 50 268 7.0 7.8 0.00 0.00 0.00 50 1015.6
20260504173751 50 269 9.6 12.2 0.00 0.00 0.00 50 1015.5
20260504173248 50 288 6.1 7.0 0.00 0.00 0.00 52 1015.6
20260504172745 49 275 8.7 9.6 0.00 0.00 0.00 51 1015.7
20260504172241 50 278 8.7 9.6 0.00 0.00 0.00 51 1015.8
20260504171737 49 274 8.7 9.6 0.00 0.00 0.00 52 1015.8
20260504171234 49 271 11.3 13.9 0.00 0.00 0.00 51 1015.8
20260504170732 49 296 6.1 6.1 0.00 0.00 0.00 52 1016.1
20260504170229 49 270 9.6 9.6 0.00 0.00 0.00 51 1015.7
20260504160147 48 253 7.0 7.0 0.00 0.00 0.00 52 1015.8
20260504151115 47 261 4.3 5.2 0.00 0.00 0.00 55 1016.1
20260504150612 47 262 4.3 5.2 0.00 0.00 0.00 55 1016.2
20260504150109 47 252 4.3 5.2 0.00 0.00 0.00 56 1016.1
20260504141038 46 174 2.6 2.6 0.00 0.00 0.00 59 1016.2
20260504140534 46 196 1.7 1.7 0.00 0.00 0.00 60 1016.3
20260504130459 45 192 1.7 1.7 0.00 0.00 0.00 60 1015.6
20260504110346 45 351 1.7 1.7 0.00 0.00 0.00 59 1016.1
20260504100303 47 6 6.1 7.0 0.00 0.00 0.00 53 1015.4
20260504081656 50 10 9.6 11.3 0.00 0.00 0.00 40 1014.3
20260504081153 50 62 11.3 13.0 0.00 0.00 0.00 40 1013.9
20260504080649 50 20 12.2 18.2 0.00 0.00 0.00 38 1013.9
20260504080145 50 18 11.3 13.9 0.00 0.00 0.00 37 1013.6
20260504070114 51 34 8.7 12.2 0.00 0.00 0.00 36 1011.6
20260504050502 56 45 0.9 0.9 0.00 0.00 0.00 29 1008.7
20260504045959 55 285 0.9 2.6 0.00 0.00 0.00 31 1008.8
20260504045455 58 225 2.6 2.6 0.00 0.00 0.00 27 1008.4
20260504044951 59 249 0.9 0.9 0.00 0.00 0.00 26 1008.0
20260504044449 60 271 1.7 1.7 0.00 0.00 0.00 25 1008.0
20260504043946 61 74 2.6 4.3 0.00 0.00 0.00 24 1007.6
20260504043443 61 229 0.9 0.9 0.00 0.00 0.00 22 1007.8
20260504042940 62 252 1.7 1.7 0.00 0.00 0.00 24 1008.2
20260504042437 62 84 7.0 7.8 0.00 0.00 0.00 22 1007.8
20260504041934 62 80 9.6 11.3 0.00 0.00 0.00 21 1007.8
20260504041430 62 90 8.7 11.3 0.00 0.00 0.00 22 1007.8
20260504040926 62 82 9.6 11.3 0.00 0.00 0.00 21 1007.7
20260504040424 62 88 10.4 12.2 0.00 0.00 0.00 21 1007.8
20260504035919 62 61 10.4 12.2 0.00 0.00 0.00 20 1007.8
20260504035417 61 77 0.9 1.7 0.00 0.00 0.00 22 1008.0
20260504034913 60 88 2.6 2.6 0.00 0.00 0.00 23 1007.8
20260504034411 62 359 2.6 2.6 0.00 0.00 0.00 21 1007.8
20260504033908 65 338 6.1 6.1 0.00 0.00 0.00 17 1007.6
20260504033406 64 330 1.7 1.7 0.00 0.00 0.00 17 1007.6
20260504032903 64 208 0.0 0.0 0.00 0.00 0.00 17 1007.5
20260504032359 65 189 0.9 0.9 0.00 0.00 0.00 17 1007.2
20260504031856 65 161 1.7 1.7 0.00 0.00 0.00 17 1007.5
20260504031353 65 327 0.0 0.0 0.00 0.00 0.00 16 1007.3
20260504030849 65 212 0.0 0.0 0.00 0.00 0.00 16 1007.5
20260504030347 65 220 0.9 0.9 0.00 0.00 0.00 17 1007.3
20260504025843 66 233 0.0 0.0 0.00 0.00 0.00 17 1007.3
20260504025340 66 234 0.0 0.9 0.00 0.00 0.00 17 1007.2
20260504024837 66 244 0.9 0.9 0.00 0.00 0.00 17 1007.2
20260504024333 66 248 0.9 0.9 0.00 0.00 0.00 16 1007.3
20260504023830 66 243 0.9 0.9 0.00 0.00 0.00 17 1007.3
20260504023327 65 238 0.9 1.7 0.00 0.00 0.00 17 1007.2
20260504022822 65 275 0.0 0.0 0.00 0.00 0.00 17 1007.0
20260504022320 66 275 0.0 0.0 0.00 0.00 0.00 17 1006.9
20260504021816 67 237 0.0 0.0 0.00 0.00 0.00 17 1007.0
20260504021314 68 339 0.0 0.0 0.00 0.00 0.00 18 1007.0
20260504020810 68 277 1.7 1.7 0.00 0.00 0.00 18 1007.2
20260504020307 68 266 2.6 2.6 0.00 0.00 0.00 17 1007.3
20260504015803 69 271 2.6 2.6 0.00 0.00 0.00 17 1007.0
20260504015259 69 284 2.6 4.3 0.00 0.00 0.00 18 1007.2
20260504014755 69 268 2.6 2.6 0.00 0.00 0.00 18 1006.9
20260504014252 70 282 4.3 5.2 0.00 0.00 0.00 16 1007.2
20260504013750 70 296 4.3 5.2 0.00 0.00 0.00 17 1007.4
20260504013247 70 303 4.3 5.2 0.00 0.00 0.00 17 1007.0
20260504012743 70 294 5.2 6.1 0.00 0.00 0.00 16 1007.3
20260504012241 70 312 4.3 5.2 0.00 0.00 0.00 16 1007.3
20260504011738 70 302 5.2 6.1 0.00 0.00 0.00 16 1007.5
20260504011235 71 308 8.7 9.6 0.00 0.00 0.00 14 1007.3
20260504010731 72 293 8.7 9.6 0.00 0.00 0.00 14 1007.2
20260504010226 72 301 7.0 7.8 0.00 0.00 0.00 13 1007.4
20260504005724 73 300 7.0 8.7 0.00 0.00 0.00 12 1007.5
20260504005221 72 285 7.8 8.7 0.00 0.00 0.00 14 1007.6
20260504004718 73 314 12.2 13.0 0.00 0.00 0.00 13 1007.5
20260504004215 73 299 6.1 7.0 0.00 0.00 0.00 13 1007.6
20260504003712 73 295 7.8 8.7 0.00 0.00 0.00 11 1007.9
20260504003209 73 295 8.7 9.6 0.00 0.00 0.00 13 1007.7
20260504002705 73 282 7.8 9.6 0.00 0.00 0.00 15 1007.7
20260504002203 73 264 7.0 7.8 0.00 0.00 0.00 12 1007.9
20260504001701 73 289 7.8 8.7 0.00 0.00 0.00 13 1007.8
20260504001156 73 285 10.4 12.2 0.00 0.00 0.00 13 1007.8
20260504000654 74 273 12.2 13.9 0.00 0.00 0.00 14 1007.8
20260504000151 74 331 7.0 8.7 0.00 0.00 0.00 13 1007.8
20260503235649 74 295 6.1 7.0 0.00 0.00 0.00 14 1007.9
20260503235145 73 279 8.7 8.7 0.00 0.00 0.00 13 1007.8
20260503234644 73 272 8.7 9.6 0.00 0.00 0.00 14 1008.0
20260503234141 73 300 15.6 17.4 0.00 0.00 0.00 12 1007.8
20260503233638 74 272 15.6 19.1 0.00 0.00 0.00 13 1007.7
20260503233133 73 323 6.1 6.1 0.00 0.00 0.00 11 1007.9
20260503232631 74 275 13.0 13.9 0.00 0.00 0.00 13 1008.0
20260503232128 73 270 7.8 9.6 0.00 0.00 0.00 15 1008.0
20260503231626 73 299 5.2 6.1 0.00 0.00 0.00 16 1008.0
20260503231122 73 286 2.6 2.6 0.00 0.00 0.00 12 1008.0
20260503230619 74 274 11.3 13.0 0.00 0.00 0.00 13 1008.2
20260503230116 74 280 4.3 5.2 0.00 0.00 0.00 13 1008.3
20260503225614 73 239 1.7 1.7 0.00 0.00 0.00 11 1008.4
20260503225108 73 260 7.8 8.7 0.00 0.00 0.00 12 1008.4
20260503224606 73 276 8.7 9.6 0.00 0.00 0.00 15 1008.4
20260503224103 73 278 11.3 13.0 0.00 0.00 0.00 15 1008.7
20260503223601 73 297 7.8 8.7 0.00 0.00 0.00 14 1008.5
20260503223056 73 292 17.4 19.1 0.00 0.00 0.00 15 1008.4
20260503222555 73 248 7.0 7.8 0.00 0.00 0.00 16 1008.7
20260503222052 73 298 10.4 13.9 0.00 0.00 0.00 16 1008.7
20260503221550 73 269 11.3 12.2 0.00 0.00 0.00 15 1008.9
20260503221047 73 274 13.0 13.9 0.00 0.00 0.00 15 1009.0
20260503220543 73 262 8.7 9.6 0.00 0.00 0.00 16 1008.8
20260503220041 73 268 10.4 15.6 0.00 0.00 0.00 16 1009.0
20260503215538 73 258 13.0 14.8 0.00 0.00 0.00 15 1008.9
20260503215035 73 268 9.6 12.2 0.00 0.00 0.00 18 1009.3
20260503214533 73 260 13.0 15.6 0.00 0.00 0.00 16 1008.8
20260503214029 73 258 7.8 8.7 0.00 0.00 0.00 17 1009.2
20260503213527 73 269 12.2 13.9 0.00 0.00 0.00 19 1009.2
20260503213024 72 281 7.0 7.8 0.00 0.00 0.00 17 1009.6
20260503212521 72 288 7.8 8.7 0.00 0.00 0.00 20 1009.6
20260503212019 71 259 6.1 7.0 0.00 0.00 0.00 20 1009.6
20260503211516 72 260 12.2 13.9 0.00 0.00 0.00 19 1009.6
20260503211011 72 259 9.6 11.3 0.00 0.00 0.00 19 1009.8
20260503210508 72 251 10.4 12.2 0.00 0.00 0.00 17 1009.6
20260503210004 72 274 14.8 17.4 0.00 0.00 0.00 20 1010.0
20260503205500 71 250 9.6 11.3 0.00 0.00 0.00 20 1009.8